Location: Kailua
(21.4020°N, 157.7390°W)
Time: 20:19:26
(UTC-10:00)

Daily predictions for brighter satellites

Satellite Brightness Start Highest point End
(mag) Time Altitude Azimuth Time Altitude Azimuth Time Altitude Azimuth
Cosmos 923 Rocket 4.1 18:58:54 10° N 19:04:11 62° ENE 19:09:25 10° SSE
Cosmos 292 Rocket 3.9 19:00:28 10° NNW 19:05:19 88° W 19:10:08 10° SSE
Resurs 01 Rocket 3.3 19:03:32 10° ESE 19:05:45 14° ENE 19:07:58 10° NE
Cosmos 1812 Rocket 4.2 19:05:28 10° SSE 19:09:28 34° E 19:13:27 10° NNE
Delta 2 Rocket 4.5 19:06:42 10° W 19:13:42 56° N 19:19:47 10° ENE
Cosmos 1821 Rocket 4.1 19:08:20 10° SSE 19:14:34 56° E 19:20:46 10° NNE
Cosmos 1844 Rocket 3.2 19:09:09 10° SSW 19:14:45 67° WNW 19:20:22 10° N
H-2A R/B 4.4 19:12:44 10° ESE 19:15:06 16° ENE 19:17:29 10° NE
Cosmos 1535 Rocket 4.5 19:15:16 10° S 19:21:21 63° E 19:27:32 10° NNE
Cosmos 2278 Rocket 2.4 19:16:31 10° S 19:21:55 48° ESE 19:27:21 10° NNE
Palapa 6 Rocket 4.2 19:19:40 10° W 19:26:47 66° SSW 19:31:48 14° ESE
Cosmos 1707 2.9 19:26:18 10° N 19:30:03 48° E 19:33:47 10° SSE
Cosmos 2150 Rocket 4.3 19:25:20 10° SSW 19:30:27 69° WNW 19:35:35 10° N
Cosmos 1766 3.5 19:27:46 10° SSE 19:31:27 44° E 19:35:09 10° NNE
GPS 2-05 Rocket1 2.8 19:28:35 10° SW 19:32:08 82° SSE 19:34:49 17° ENE
Spot 2 Rocket 4.3 19:27:45 10° SE 19:32:09 30° ENE 19:36:33 10° NNE
Cosmos 1605 Rocket 4.4 19:26:52 10° SSE 19:32:30 39° E 19:38:14 10° NNE
Cosmos 2344 4.1 19:28:16 10° SW 19:36:08 65° WNW 19:43:55 10° NNE
FENGYUN 3A 3.7 19:31:26 10° SSE 19:36:43 57° ENE 19:42:00 10° N
Cosmos 2112 Rocket 4.0 19:37:07 10° NNW 19:42:22 84° WSW 19:47:34 10° S
Meteor 1-24 Rocket 4.1 19:38:51 10° NNE 19:44:02 40° E 19:49:21 10° SSE
Meteor 2-5 Rocket 3.7 19:41:22 10° N 19:47:08 83° E 19:53:01 10° S
HJ-1C 3.2 19:44:53 10° SSE 19:48:14 79° ENE 19:51:37 10° N
Cosmos 1000 Rocket 4.4 19:43:14 10° N 19:49:25 82° E 19:55:39 10° S
Timation 1 Rocket 4.5 19:43:54 10° S 19:49:37 48° ESE 19:55:21 10° NNE
ATLAS 5 CENTAUR R/B 3.6 19:46:46 10° SSE 19:47:35 13° SSE 19:47:35 13° SSE
Cosmos 1125 Rocket 3.8 19:49:33 10° SSE 19:54:20 39° E 19:59:07 10° NNE
Resurs 1-3 3.8 19:52:47 23° SE 19:55:16 48° ENE 19:59:29 10° N
Cosmos 192 4.2 19:50:45 10° N 19:55:39 72° ENE 19:59:59 13° SSE
Cosmos 2123 Rocket 4.2 19:50:21 10° N 19:56:22 46° E 20:02:19 10° SSE
CZ-2D R/B 3.4 20:02:43 49° ENE 20:02:43 49° ENE 20:06:22 10° N
Delta 128 4.0 19:59:01 10° W 20:03:24 56° NNW 20:05:09 33° NE
Helios 1B rocket 2.2 20:00:24 10° NNE 20:04:31 77° E 20:08:37 10° S
COSMOS 2406 3.1 20:01:29 10° NNW 20:07:12 80° ENE 20:11:11 20° SSE
USA 215 4.4 20:02:22 10° NNE 20:08:25 42° NW 20:14:27 10° WSW
Cosmos 1805 3.0 20:05:35 10° S 20:09:27 72° E 20:13:19 10° N
Maqsat-H 3.9 20:16:48 10° SSW 20:17:47 13° S 20:17:47 13° S
H-2A R/B 3.9 20:20:30 10° WNW 20:25:40 60° N 21:15:46 10° E
H-2A R/B 3.9 20:20:29 10° WNW 20:25:41 60° N 21:15:45 10° E
H-2A R/B 3.9 20:20:29 10° WNW 20:25:41 60° N 21:15:46 10° E
H-2A R/B 3.9 20:20:30 10° WNW 20:25:41 60° N 21:15:46 10° E
H-2A R/B 3.9 20:20:30 10° WNW 20:25:41 60° N 21:15:45 10° E
H-II Stage 2 3.9 20:24:15 10° NW 20:24:34 12° NW 20:24:34 12° NW
Cosmos 2098 Rocket 4.0 20:20:11 10° S 20:26:26 80° E 20:33:48 10° N
Delta 168 3.9 20:24:01 10° W 20:26:07 33° WNW 20:26:07 33° WNW
SWIFT 2.6 20:23:03 10° W 20:26:47 63° WSW 20:26:47 63° WSW
ALOS 4.1 20:23:45 10° SSW 20:27:49 30° W 20:31:54 10° NW
SeaSat 1 3.9 20:29:50 10° S 20:34:16 34° WSW 20:38:42 10° NW
Resurs 01 Rocket 3.3 20:38:14 11° SSW 20:41:53 31° W 20:45:48 10° NW
Cosmos 1867 4.1 20:40:19 10° SW 20:45:38 57° WNW 20:48:24 28° N
Aurora 2 Rocket 3.4 20:41:14 10° WSW 20:45:59 55° W 20:45:59 55° W
